Weather reports worldwide

Advertisment
Lefkopa, Cyprus (17515): temperature & dewpoint: 19.09.2018 09:00:00 - 25.09.2018 09:00:00 (EEST)Lefkopa, Cyprus (17515): wind speed: 19.09.2018 09:00:00 - 25.09.2018 09:00:00 (EEST)Lefkopa, Cyprus (17515): wind direction: 19.09.2018 09:00:00 - 25.09.2018 09:00:00 (EEST)Lefkopa, Cyprus (17515): reduced air pressure: 19.09.2018 09:00:00 - 25.09.2018 09:00:00 (EEST)Lefkopa, Cyprus (17515): visibility: 19.09.2018 09:00:00 - 25.09.2018 09:00:00 (EEST)
Date & Time tt [°C] td [°C] ff [km/h] ff [kn] dd ppp [hPa] vv [km]
25.09.2018 09:00:00 - - - - - - -
25.09.2018 08:00:00 18,2 17,2 0 0 N 1014,1 5
25.09.2018 07:00:00 19,7 18,5 0 0 N 1013,8 0,1
25.09.2018 06:00:00 21,2 19,5 0 0 N 1013,5 10
25.09.2018 05:00:00 21,5 19,7 0 0 N 1013,5 6
25.09.2018 04:00:00 21,8 19,9 9 5 SW 1013,5 2,0
25.09.2018 03:00:00 22,0 19,9 9 5 S 1013,6 10
25.09.2018 02:00:00 22,6 20,0 8 4 SSW 1013,9 10
25.09.2018 01:00:00 22,5 19,2 5 3 SSW 1014,2 10
25.09.2018 00:00:00 23,4 19,6 8 4 SW 1014,5 10
24.09.2018 23:00:00 24,3 20,1 8 4 S 1014,7 10
24.09.2018 22:00:00 25,2 19,9 11 6 SW 1014,4 10
24.09.2018 21:00:00 25,9 18,9 9 5 S 1014,2 10
24.09.2018 20:00:00 27,0 18,8 16 9 SSW 1013,7 10
24.09.2018 19:00:00 28,7 18,1 16 9 S 1013,4 10
24.09.2018 18:00:00 31,3 18,1 8 4 SSW 1013,2 10
24.09.2018 17:00:00 34,7 7,8 13 7 E 1013,1 10
24.09.2018 16:00:00 35,3 11,1 11 6 ESE 1013,4 10
24.09.2018 15:00:00 35,3 6,1 13 7 ENE 1014,0 10
24.09.2018 14:00:00 34,5 10,5 11 6 N 1014,6 10
24.09.2018 13:00:00 33,4 10,5 9 5 ENE 1015,2 10
24.09.2018 12:00:00 31,7 12,9 13 7 E 1015,7 10
24.09.2018 11:00:00 29,5 15,9 8 4 ENE 1016,1 10
24.09.2018 10:00:00 27,2 19,0 0 0 N 1016,5 10
24.09.2018 09:00:00 21,7 15,6 0 0 N 1016,6 10
24.09.2018 08:00:00 18,0 13,5 0 0 N 1016,7 10
24.09.2018 07:00:00 16,1 13,6 0 0 N 1016,5 10
24.09.2018 06:00:00 18,9 16,8 0 0 N 1016,2 10
24.09.2018 05:00:00 19,9 17,4 0 0 N 1016,0 10
24.09.2018 04:00:00 20,1 17,6 5 3 SSW 1015,9 10
24.09.2018 03:00:00 21,8 19,7 5 3 S 1016,4 10
24.09.2018 02:00:00 22,0 19,7 0 0 N 1016,6 10
24.09.2018 01:00:00 22,6 19,9 0 0 N 1017,0 10
24.09.2018 00:00:00 23,6 20,4 5 3 SSW 1017,0 10
23.09.2018 23:00:00 20,4 20,4 5 3 SW 1016,9 10
23.09.2018 22:00:00 24,6 20,6 8 4 SSW 1016,7 10
23.09.2018 21:00:00 25,3 20,9 11 6 SW 1016,2 10
23.09.2018 20:00:00 26,3 20,4 15 8 WSW 1015,7 10
23.09.2018 19:00:00 28,7 19,2 15 8 SW 1014,9 10
23.09.2018 18:00:00 32,1 15,6 9 5 S 1014,4 10
23.09.2018 17:00:00 35,7 -1,9 9 5 NNW 1014,0 10
23.09.2018 16:00:00 35,8 0,6 13 7 NW 1014,1 10
23.09.2018 15:00:00 35,5 -0,3 18 10 WNW 1014,6 10
23.09.2018 14:00:00 34,9 5,8 8 4 ESE 1015,4 10
23.09.2018 13:00:00 - - - - - - -
23.09.2018 12:00:00 32,8 7,1 0 0 N 1015,9 10
23.09.2018 11:00:00 30,6 11,3 0 0 N 1016,1 10
23.09.2018 10:00:00 27,5 15,1 15 8 SSW 1016,2 10
23.09.2018 09:00:00 21,7 16,4 5 3 SSW 1016,0 10
23.09.2018 08:00:00 20,5 16,4 5 3 S 1015,9 10
23.09.2018 07:00:00 20,2 17,0 5 3 SW 1015,7 10
23.09.2018 06:00:00 20,7 17,0 5 3 SSW 1015,5 10
23.09.2018 05:00:00 21,5 18,0 8 4 S 1015,5 10
23.09.2018 04:00:00 22,0 18,3 8 4 SSE 1015,4 10
23.09.2018 03:00:00 22,4 18,9 8 4 SSW 1015,3 10
23.09.2018 02:00:00 22,7 19,2 5 3 S 1015,2 10
23.09.2018 01:00:00 23,0 19,3 9 5 SW 1015,3 10
23.09.2018 00:00:00 24,0 19,5 9 5 WSW 1015,4 10
22.09.2018 23:00:00 24,3 19,5 9 5 SSW 1015,3 10
22.09.2018 22:00:00 24,7 18,9 8 4 SW 1015,3 10
22.09.2018 21:00:00 25,3 18,6 9 5 SW 1015,0 10
22.09.2018 20:00:00 26,8 16,4 8 4 S 1014,4 10
22.09.2018 19:00:00 28,7 10,4 18 10 SSW 1014,0 10
22.09.2018 18:00:00 31,0 7,7 16 9 S 1013,6 10
22.09.2018 17:00:00 32,8 8,6 26 14 SW 1013,2 10
22.09.2018 16:00:00 33,8 6,9 8 4 NW 1013,1 10
22.09.2018 15:00:00 34,4 6,5 0 0 N 1013,3 10
22.09.2018 14:00:00 34,3 6,2 15 8 WNW 1013,6 10
22.09.2018 13:00:00 33,5 7,4 9 5 S 1014,1 10
22.09.2018 12:00:00 32,4 7,8 5 3 SSW 1014,5 10
22.09.2018 11:00:00 30,7 11,0 5 3 SW 1014,9 10
22.09.2018 10:00:00 27,6 16,3 9 5 S 1014,9 10
22.09.2018 09:00:00 23,0 15,5 8 4 S 1014,7 10
22.09.2018 08:00:00 22,0 15,3 0 0 N 1014,7 10
22.09.2018 07:00:00 20,6 13,5 8 4 SW 1014,6 10
22.09.2018 06:00:00 20,8 12,2 0 0 N 1014,4 10
22.09.2018 05:00:00 20,4 12,3 5 3 WSW 1014,2 10
22.09.2018 04:00:00 21,4 12,2 5 3 SW 1014,1 10
22.09.2018 03:00:00 22,9 15,3 5 3 SSW 1014,0 10
22.09.2018 02:00:00 23,0 13,4 5 3 S 1014,2 10
22.09.2018 01:00:00 - - - - - - -
22.09.2018 00:00:00 23,9 15,7 8 4 SW 1014,4 10
21.09.2018 23:00:00 24,2 18,3 8 4 SW 1014,2 10
21.09.2018 22:00:00 24,6 18,7 9 5 SW 1014,2 10
21.09.2018 21:00:00 25,6 19,0 16 9 SSW 1013,9 10
21.09.2018 20:00:00 26,5 18,0 16 9 SSW 1013,4 10
21.09.2018 19:00:00 27,5 18,7 15 8 SW 1013,1 10
21.09.2018 18:00:00 30,7 13,5 11 6 SSW 1012,5 10
21.09.2018 17:00:00 33,6 1,6 13 7 SW 1012,2 10
21.09.2018 16:00:00 33,5 5,7 24 13 NW 1012,0 10
21.09.2018 15:00:00 33,8 8,1 11 6 NW 1012,0 10
21.09.2018 14:00:00 24,3 8,6 5 3 WNW 1012,2 10
21.09.2018 13:00:00 33,2 14,4 18 10 W 1012,4 10
21.09.2018 12:00:00 31,1 16,6 8 4 S 1013,2 10
21.09.2018 11:00:00 29,7 16,4 11 6 SW 1013,6 10
21.09.2018 10:00:00 27,5 19,0 11 6 S 1013,6 10
21.09.2018 09:00:00 23,4 16,9 0 0 N 1013,5 10
21.09.2018 08:00:00 21,1 16,6 0 0 N 1013,5 10
21.09.2018 07:00:00 19,8 16,1 0 0 N 1013,2 10
21.09.2018 06:00:00 21,7 18,0 0 0 N 1012,6 10
21.09.2018 05:00:00 21,5 17,8 8 4 S 1012,3 10
21.09.2018 04:00:00 21,9 18,9 5 3 SSW 1012,3 10
21.09.2018 03:00:00 22,6 19,6 5 3 SSW 1012,5 10
21.09.2018 02:00:00 21,7 19,1 0 0 N 1012,7 10
21.09.2018 01:00:00 22,2 19,6 0 0 N 1012,8 10
21.09.2018 00:00:00 24,0 20,9 5 3 SW 1012,9 10
20.09.2018 23:00:00 24,6 21,4 8 4 SW 1012,8 10
20.09.2018 22:00:00 25,3 21,2 13 7 WSW 1012,8 10
20.09.2018 21:00:00 25,9 21,1 13 7 SW 1012,6 10
20.09.2018 20:00:00 26,6 20,9 21 11 SSW 1012,1 10
20.09.2018 19:00:00 29,0 19,1 11 6 SW 1011,5 10
20.09.2018 18:00:00 31,0 15,4 26 14 SSW 1011,0 10
20.09.2018 17:00:00 32,4 14,0 13 7 NNE 1010,9 10
20.09.2018 16:00:00 33,4 13,3 18 10 NW 1010,7 10
20.09.2018 15:00:00 - - - - - - -
20.09.2018 14:00:00 35,1 10,6 9 5 ENE 1011,6 10
20.09.2018 13:00:00 34,3 11,5 11 6 E 1012,2 10
20.09.2018 12:00:00 33,0 11,1 11 6 ESE 1012,7 10
20.09.2018 11:00:00 31,2 12,0 9 5 SSE 1013,1 10
20.09.2018 10:00:00 29,3 12,5 11 6 SSW 1013,3 10
20.09.2018 09:00:00 24,4 12,2 5 3 SW 1013,3 10
20.09.2018 08:00:00 22,7 8,8 8 4 SSW 1013,2 10
20.09.2018 07:00:00 22,3 12,4 0 0 N 1012,9 10
20.09.2018 06:00:00 22,1 14,1 0 0 N 1012,6 10
20.09.2018 05:00:00 22,8 16,4 0 0 N 1012,5 10
20.09.2018 04:00:00 23,1 17,2 5 3 SSW 1012,5 10
20.09.2018 03:00:00 23,4 17,6 8 4 SSW 1012,6 10
20.09.2018 02:00:00 24,4 19,2 0 0 N 1012,7 10
20.09.2018 01:00:00 24,4 19,2 0 0 N 1012,7 10
20.09.2018 00:00:00 25,0 19,8 0 0 N 1012,9 10
19.09.2018 23:00:00 25,8 19,7 8 4 SSW 1013,1 10
19.09.2018 22:00:00 26,4 19,3 8 4 SSW 1013,0 10
19.09.2018 21:00:00 27,2 18,5 13 7 SSW 1012,6 10
19.09.2018 20:00:00 28,8 18,0 16 9 S - 10
19.09.2018 19:00:00 32,3 11,6 13 7 NE 1011,1 10
19.09.2018 18:00:00 34,7 4,7 11 6 N 1010,9 10
19.09.2018 17:00:00 35,1 5,2 11 6 NW 1010,7 10
19.09.2018 16:00:00 35,6 6,7 0 0 N 1011,0 10
19.09.2018 15:00:00 35,8 6,1 8 4 NNW 1011,2 10
19.09.2018 14:00:00 34,6 6,3 0 0 N 1011,8 10
19.09.2018 13:00:00 34,5 7,0 15 8 W 1012,2 10
19.09.2018 12:00:00 33,3 7,8 9 5 W 1012,6 10
19.09.2018 11:00:00 32,4 8,8 16 9 NW 1012,9 10
19.09.2018 10:00:00 30,0 11,9 11 6 SSW 1013,0 10
19.09.2018 09:00:00 24,4 10,7 0 0 N 1013,0 10

tt = temperature
td = dewpoint
ff = wind speed
dd = wind direction
ppp = reduced air pressure
vv = visibility

Next stations